Location: Gleizolles
(44.4833°N, 6.7667°E)
Time: 15:23:22
(UTC+00:00)

Vanguard 1 - Pass Details

Date: 25 June 2024
Orbit: 650 x 3826 km, 34.3° (Epoch: 22 July)

Event Time Altitude Azimuth Distance (km) Brightness Sun altitude
Rises 11:25:50 0° 245° (WSW) 5,206 13.9 68.8°
Reaches altitude 10° 11:30:17 10° 237° (WSW) 3,678 13.3 68.9°
Maximum altitude 11:37:38 32° 178° (S) 1,686 12.3 68.9°
Drops below altitude 10° 11:42:26 10° 115° (ESE) 2,369 12.3 68.8°
Sets 11:44:41 0° 105° (ESE) 3,133 12.7 68.8°
